Temp_Advection
nan nan nan nan nan nan nan nan nan nan nan nan nan nan nan nan nan nan nan nan nan nan nan nan nan nan nan nan nan nan nan nan
nan -1 -0 0 -0 -0 0 0 0 0 -0 -0 -0 -0 0 0 0 0 -0 0 0 -0 -0 0 0 0 0 0 0 0 -0 nan
nan -0 -0 -0 -0 -0 -0 0 -0 0 -0 -0 0 1 0 0 0 0 0 0 0 0 -0 -0 0 0 0 0 0 0 0 nan
nan -0 -0 -0 -0 -1 -1 -0 -0 -0 0 0 0 0 0 0 -0 0 0 0 0 -0 -0 0 0 0 0 0 1 0 0 nan
nan -1 -1 -1 -0 0 -0 -0 0 0 0 1 0 0 0 -0 0 1 1 0 0 0 0 0 0 0 0 0 0 0 0 nan
nan -1 -1 0 1 0 1 1 0 0 0 0 0 0 1 1 1 1 0 0 0 0 0 0 -0 0 0 -0 -0 0 0 nan
nan 0 1 1 0 1 1 0 0 -0 -0 0 1 1 1 1 1 0 0 0 1 0 0 0 0 -0 0 0 -0 -0 -0 nan
nan 0 1 0 -0 1 0 0 0 0 0 1 1 1 1 1 0 0 0 1 0 0 -0 -0 0 0 0 0 -0 -0 -0 nan
nan 0 -0 -0 1 1 -0 -0 0 0 1 1 1 1 1 0 0 0 1 0 0 0 0 -0 0 0 0 0 0 -0 0 nan
nan -0 -0 0 1 -0 -1 1 1 0 1 1 1 1 0 0 1 1 1 0 0 -0 0 0 0 0 0 0 0 0 0 nan
nan 0 0 1 0 0 1 1 0 1 1 1 0 0 0 1 1 0 0 0 0 0 0 0 0 0 0 0 0 0 0 nan
nan -0 0 0 1 1 1 1 0 0 0 1 0 0 1 1 1 1 1 0 -0 -0 -0 -0 -0 0 0 0 0 0 0 nan
nan 0 0 0 1 1 1 0 0 0 1 2 1 1 1 1 1 1 1 0 -0 -0 -0 -0 0 0 0 0 0 0 0 nan
nan 1 1 1 1 1 1 1 1 2 2 2 1 1 1 1 1 1 1 0 0 0 0 -0 0 0 0 0 0 0 0 nan
nan 1 1 1 1 1 2 2 2 1 1 1 1 1 1 1 1 1 1 0 0 -0 0 0 0 0 0 0 0 0 0 nan
nan 0 -0 0 1 2 2 1 1 1 1 1 1 1 1 1 1 1 1 0 -0 -0 -0 0 0 0 0 0 0 0 0 nan
nan -0 0 1 2 1 1 1 1 1 1 2 2 1 1 1 1 1 1 0 0 -0 -0 0 0 0 0 0 0 0 1 nan
nan -0 -0 -0 0 1 1 1 1 2 2 2 2 1 2 2 1 1 1 0 0 -0 -0 0 0 0 0 0 1 1 1 nan
nan nan nan nan nan nan nan nan nan nan nan nan nan nan nan nan nan nan nan nan nan nan nan nan nan nan nan nan nan nan nan nan
Wind_Speed
35 34 30 24 26 32 37 33 31 29 28 23 13 12 13 12 11 11 11 9 6 4 6 11 15 17 18 18 19 20 19 17
35 35 30 25 30 37 38 34 32 31 30 20 13 13 14 14 13 12 10 8 5 4 10 15 17 17 18 18 19 18 17 19
41 38 35 32 30 34 32 30 30 31 28 16 13 17 16 13 13 12 11 8 4 9 12 15 17 16 17 17 18 18 17 14
44 45 42 36 33 31 30 30 32 29 23 18 19 18 18 18 18 17 14 10 7 11 14 16 16 16 16 17 18 17 14 16
45 43 42 39 35 29 29 31 32 31 26 25 25 25 25 22 21 17 15 8 8 12 15 14 13 15 15 14 13 13 13 12
46 47 44 42 37 33 28 28 28 32 31 29 30 28 26 25 23 18 13 10 11 14 13 12 14 15 15 13 11 11 12 12
41 43 43 42 35 31 33 30 28 31 33 30 35 34 32 31 26 19 16 15 15 12 11 11 13 13 13 12 11 13 16 18
42 41 40 40 35 33 34 31 32 31 29 31 33 37 34 30 23 19 17 13 10 10 11 11 13 14 12 13 14 18 18 14
41 36 36 37 33 34 37 35 34 34 33 31 29 30 27 23 19 17 14 11 9 8 12 14 13 12 12 12 14 17 16 19
38 38 35 32 35 38 35 31 37 35 33 29 27 27 25 22 20 16 11 7 9 14 13 14 14 13 13 14 12 13 15 15
36 36 36 35 36 35 31 30 33 36 30 27 25 26 24 21 16 11 8 10 10 11 13 14 14 13 13 12 14 16 17 18
35 34 34 32 33 33 33 36 36 34 33 30 28 27 25 21 17 14 13 8 12 13 14 15 16 14 13 11 14 18 22 20
34 31 31 31 33 37 40 40 38 37 36 33 30 27 25 23 19 16 10 9 11 12 15 16 15 14 13 13 16 20 16 17
36 34 35 37 39 41 42 42 41 38 34 32 30 28 26 25 20 17 11 11 10 14 16 16 12 11 13 16 19 23 18 19
35 36 39 41 43 45 46 43 40 34 32 32 32 30 27 23 20 16 14 11 9 13 16 17 14 11 15 20 22 20 19 20
29 28 34 42 45 47 45 42 36 33 33 35 34 29 23 19 17 17 17 8 8 11 18 16 18 17 18 21 22 22 20 19
6 3 6 28 41 42 42 38 35 36 36 36 32 26 21 24 25 24 15 10 2 11 16 18 20 24 23 21 22 23 21 20
11 10 7 5 14 30 34 34 34 36 36 33 29 28 29 31 28 23 17 12 16 14 21 23 21 24 25 24 22 21 19 19
7 6 7 7 7 13 23 27 33 35 33 31 31 30 32 29 22 13 7 17 12 20 26 25 24 22 22 22 21 21 25 22
Wind_Direction
180 180 179 176 182 186 184 182 185 190 189 190 203 189 176 175 172 175 170 177 197 240 314 324 319 315 308 298 296 299 305 306
185 184 183 183 187 182 184 184 188 193 192 194 206 209 187 178 185 185 191 202 214 301 320 317 312 304 298 300 304 304 305 305
188 190 187 189 191 190 189 189 198 198 200 209 232 202 183 192 194 203 224 238 280 316 314 311 307 301 299 300 300 303 307 301
189 191 192 191 194 197 193 199 202 201 203 201 194 188 194 195 201 215 219 222 270 304 314 305 293 291 290 291 294 296 298 296
194 195 195 198 201 200 196 202 204 205 208 201 203 202 205 210 221 221 219 235 281 293 288 285 286 288 293 292 295 296 303 296
198 200 204 203 202 200 201 198 204 209 209 218 219 215 217 218 215 213 214 239 263 274 281 288 291 298 304 306 313 314 301 291
202 203 204 203 202 207 204 200 205 206 214 220 220 216 213 213 210 209 219 240 259 269 283 294 303 307 306 310 319 309 303 299
201 201 202 199 204 209 206 206 209 212 214 209 212 212 216 214 210 215 233 248 261 281 294 301 308 307 308 309 314 304 313 313
195 192 193 199 208 208 203 205 213 209 209 210 210 215 211 207 219 232 245 261 278 296 308 307 307 302 299 302 304 307 303 310
192 196 201 210 206 202 213 223 214 214 211 214 210 209 211 221 229 240 257 269 298 309 298 301 307 305 297 295 297 300 300 297
198 202 209 213 213 212 221 219 216 217 218 220 222 217 219 225 232 252 255 291 294 305 311 312 313 308 302 297 299 305 305 300
198 205 211 216 216 216 216 214 217 223 229 234 232 229 227 233 241 241 259 276 311 310 322 323 315 304 290 295 299 300 305 300
208 212 215 217 222 220 218 219 222 234 240 237 230 233 234 232 238 240 245 281 296 315 325 317 315 300 284 292 290 306 296 292
210 211 217 222 222 221 222 226 231 230 229 232 232 230 230 232 241 244 242 274 287 307 310 318 310 290 278 281 296 301 289 282
216 217 219 220 221 223 223 225 226 226 229 233 231 233 228 233 243 238 251 253 293 300 315 310 306 292 280 283 288 299 296 286
226 224 226 224 225 225 224 225 228 231 233 229 230 232 229 232 225 231 222 246 293 309 297 302 296 288 287 283 279 291 290 288
155 226 280 253 240 232 230 228 229 230 231 230 226 223 216 211 213 205 210 203 231 287 296 296 289 293 286 280 280 285 284 283
47 23 15 312 270 246 233 229 233 231 230 223 219 212 211 211 204 211 208 234 293 300 290 289 286 292 279 277 285 277 271 291
65 34 355 331 281 256 242 238 230 224 215 216 208 209 200 197 210 218 272 300 295 281 287 284 289 284 281 272 274 276 280 291
Height
1532 1535 1538 1539 1542 1546 1549 1552 1554 1557 1557 1561 1561 1562 1562 1562 1563 1565 1565 1567 1568 1569 1567 1567 1567 1566 1566 1566 1566 1564 1561 1560
1530 1533 1536 1539 1543 1544 1546 1548 1551 1553 1555 1556 1558 1559 1560 1561 1563 1564 1565 1565 1566 1566 1566 1566 1565 1565 1565 1563 1561 1560 1559 1558
1528 1530 1533 1536 1539 1543 1546 1548 1550 1552 1555 1555 1557 1559 1560 1562 1562 1561 1561 1562 1564 1565 1565 1564 1563 1562 1561 1560 1559 1557 1556 1554
1521 1524 1527 1532 1535 1539 1543 1547 1549 1551 1554 1554 1555 1557 1557 1558 1558 1558 1560 1561 1562 1562 1561 1560 1559 1559 1557 1555 1554 1553 1553 1551
1516 1521 1525 1526 1529 1535 1540 1543 1545 1548 1549 1550 1551 1551 1552 1554 1555 1556 1558 1559 1559 1560 1559 1557 1556 1555 1553 1551 1549 1549 1548 1548
1510 1513 1517 1520 1525 1529 1534 1538 1542 1545 1546 1546 1548 1549 1550 1550 1552 1554 1556 1556 1557 1556 1555 1554 1551 1550 1551 1548 1545 1545 1545 1545
1511 1512 1516 1521 1526 1528 1531 1533 1537 1540 1542 1543 1544 1546 1546 1547 1550 1553 1554 1554 1553 1552 1551 1550 1549 1547 1545 1545 1543 1543 1542 1540
1506 1508 1513 1520 1523 1525 1528 1530 1533 1536 1538 1539 1541 1543 1545 1547 1550 1552 1552 1550 1550 1549 1548 1545 1544 1543 1542 1543 1540 1541 1540 1538
1501 1506 1510 1514 1518 1521 1523 1526 1530 1533 1535 1537 1541 1543 1545 1548 1550 1550 1549 1548 1547 1545 1547 1544 1540 1540 1539 1539 1539 1537 1537 1535
1499 1505 1508 1511 1513 1517 1519 1523 1526 1529 1531 1534 1538 1542 1542 1545 1545 1545 1545 1545 1544 1542 1541 1542 1539 1539 1537 1535 1537 1536 1534 1534
1498 1502 1505 1508 1510 1512 1516 1520 1523 1525 1528 1531 1534 1537 1538 1539 1540 1541 1542 1540 1540 1540 1538 1537 1536 1535 1534 1531 1533 1532 1531 1529
1493 1496 1500 1503 1507 1509 1510 1514 1517 1520 1522 1525 1527 1530 1532 1533 1535 1535 1536 1538 1536 1536 1535 1534 1533 1531 1530 1528 1528 1527 1526 1525
1488 1490 1494 1498 1500 1502 1503 1507 1509 1511 1514 1516 1519 1522 1525 1527 1528 1529 1530 1530 1531 1531 1531 1530 1528 1528 1527 1526 1525 1523 1521 1520
1484 1487 1490 1492 1494 1495 1496 1498 1500 1503 1507 1512 1515 1517 1520 1521 1522 1523 1524 1525 1526 1526 1526 1525 1524 1523 1523 1522 1520 1519 1517 1516
1481 1483 1485 1487 1489 1489 1491 1494 1496 1501 1504 1508 1510 1512 1514 1516 1517 1518 1520 1521 1522 1522 1522 1521 1520 1520 1519 1519 1517 1516 1514 1512
1481 1483 1485 1486 1486 1488 1489 1492 1496 1499 1501 1504 1506 1508 1511 1512 1514 1515 1515 1515 1517 1518 1517 1517 1516 1516 1516 1515 1513 1511 1510 1509
1483 1484 1483 1482 1482 1484 1487 1491 1494 1496 1497 1499 1502 1505 1507 1508 1508 1507 1507 1508 1510 1513 1513 1512 1511 1511 1510 1510 1508 1507 1504 1503
1481 1480 1480 1480 1480 1481 1484 1488 1491 1492 1494 1497 1499 1500 1500 1501 1501 1500 1500 1503 1506 1508 1506 1505 1504 1504 1503 1503 1503 1502 1500 1498
1482 1481 1481 1480 1481 1482 1483 1485 1486 1488 1492 1495 1496 1496 1496 1495 1496 1497 1497 1502 1503 1501 1501 1501 1499 1497 1497 1497 1496 1495 1493 1491